User: anonymous   Login
Location: Unspecified
(0.0000°N, 0.0000°E)
Time: 03:32:48
(UTC+00:00)
Language:

SES 6 - Orbit

View from above orbital plane
View from above orbital plane
View from above satellite
View from above satellite

Ground track
Ground track

The orbit data is extracted from the following two-line orbital elements,

1 39172U 13026A   17021.14690272 -.00000263  00000-0  00000+0 0  9997
2 39172   0.0180  16.7083 0001917 289.7428 186.6107  1.00271318 13293
Epoch (UTC): 21 January 2017 03:31:32
Eccentricity: 0.0001917
inclination: 0.0180°
perigee height: 35778 km
apogee height: 35794 km
right ascension of ascending node: 16.7083°
argument of perigee: 289.7428°
revolutions per day: 1.00271318
mean anomaly at epoch: 186.6107°
orbit number at epoch: 1329

The dashed part of the orbit path shows where the satellite is in the earth's shadow,  

DLR